FW2270 Weather Reports


Display with metric or nautical units.
time (UTC)temp
F
wind
direction
speed
MPH
gust
MPH
rain 1hr
in
rain 24hr
in
rain mn
in
humidity
%
barometer
mb
20260901063432 58 291 6.0 14.0 0.00 0.00 0.00 93 1014.5
20260901062429 59 312 5.0 15.0 0.00 0.00 0.00 93 1014.6
20260901061443 59 308 3.0 10.0 0.00 0.00 0.00 93 1014.6
20260901060416 59 287 3.0 9.0 0.00 0.00 0.00 93 1014.6
20260901055427 59 311 2.0 9.0 0.00 0.00 0.00 92 1014.6
20260901054424 59 300 5.0 11.0 0.00 0.00 0.00 93 1014.8
20260901053418 59 297 4.0 9.0 0.00 0.00 0.00 93 1014.7
20260901052431 59 298 4.0 8.0 0.00 0.00 0.00 93 1014.8
20260901051430 59 287 6.0 10.0 0.00 0.00 0.00 93 1014.9
20260901050444 59 301 3.0 11.0 0.00 0.00 0.00 92 1014.9
20260901045414 59 298 5.0 12.0 0.00 0.00 0.00 92 1014.9
20260901044446 59 312 6.0 12.0 0.00 0.00 0.00 92 1014.8
20260901043422 59 312 5.0 11.0 0.00 0.00 0.00 92 1014.8
20260901042416 60 307 3.0 14.0 0.00 0.00 0.00 92 1014.8
20260901041449 60 324 7.0 13.0 0.00 0.00 0.00 92 1014.8
20260901040442 60 329 8.0 16.0 0.00 0.00 0.00 92 1014.8
20260901035417 60 285 7.0 15.0 0.00 0.00 0.00 91 1014.6
20260901034432 60 290 6.0 11.0 0.00 0.00 0.00 91 1014.4
20260901033445 60 327 4.0 8.0 0.00 0.00 0.00 91 1014.3
20260901032418 60 294 1.0 9.0 0.00 0.00 0.00 91 1014.2
20260901031416 60 327 5.0 7.0 0.00 0.00 0.00 91 1014.1
20260901030451 60 322 5.0 9.0 0.00 0.00 0.00 91 1014.1
20260901025422 60 303 5.0 13.0 0.00 0.00 0.00 91 1014.1
20260901024415 60 329 4.0 12.0 0.00 0.00 0.00 90 1014.2
20260901023433 60 330 6.0 13.0 0.00 0.00 0.00 90 1014.0
20260901022447 61 317 5.0 11.0 0.00 0.00 0.00 89 1014.0
20260901021441 61 310 5.0 13.0 0.00 0.00 0.00 88 1014.0
20260901020413 61 260 6.0 13.0 0.00 0.00 0.00 87 1014.0
20260901015449 62 320 6.0 14.0 0.00 0.00 0.00 87 1014.0
20260901014421 63 263 5.0 14.0 0.00 0.00 0.00 84 1014.1
20260901013433 63 318 4.0 15.0 0.00 0.00 0.00 84 1013.9
20260901012425 63 301 5.0 14.0 0.00 0.00 0.00 84 1014.0
20260901011420 63 300 6.0 13.0 0.00 0.00 0.00 83 1013.9
20260901010433 64 274 6.0 13.0 0.00 0.00 0.00 82 1013.9
20260901005423 64 271 4.0 16.0 0.00 0.00 0.00 82 1013.9
20260901004534 64 298 9.0 15.0 0.00 0.00 0.00 80 1014.0
20260901003421 65 304 7.0 17.0 0.00 0.00 0.00 79 1014.0
20260901002417 65 303 7.0 17.0 0.00 0.00 0.00 78 1014.0
20260901001429 65 306 9.0 17.0 0.00 0.00 0.00 77 1013.9
20260901000443 66 327 8.0 17.0 0.00 0.00 0.00 76 1013.9
20260831235432 66 329 6.0 15.0 0.00 0.00 0.00 76 1013.9
20260831234429 66 312 7.0 16.0 0.00 0.00 0.00 76 1013.8
20260831233422 66 311 7.0 16.0 0.00 0.00 0.00 76 1013.9
20260831232416 66 320 7.0 14.0 0.00 0.00 0.00 76 1014.1
20260831231428 66 312 8.0 20.0 0.00 0.00 0.00 77 1014.1
20260831225425 66 302 9.0 17.0 0.00 0.00 0.00 77 1014.3
20260831224419 66 265 8.0 19.0 0.00 0.00 0.00 77 1014.3
20260831223417 66 348 9.0 19.0 0.00 0.00 0.00 77 1014.4
20260831222414 66 355 7.0 14.0 0.00 0.00 0.00 77 1014.5
20260831221446 66 312 8.0 17.0 0.00 0.00 0.00 77 1014.5
20260831220438 67 305 6.0 17.0 0.00 0.00 0.00 76 1014.6
20260831215452 66 299 8.0 17.0 0.00 0.00 0.00 76 1014.7
20260831214425 66 315 6.0 13.0 0.00 0.00 0.00 77 1014.8
20260831213419 66 328 5.0 16.0 0.00 0.00 0.00 77 1014.9
20260831212433 66 318 6.0 18.0 0.00 0.00 0.00 77 1014.9
20260831211431 66 342 4.0 13.0 0.00 0.00 0.00 76 1014.9
20260831210426 68 268 3.0 10.0 0.00 0.00 0.00 73 1014.9
20260831205417 67 339 5.0 14.0 0.00 0.00 0.00 74 1014.9
20260831204412 67 315 5.0 13.0 0.00 0.00 0.00 74 1014.8
20260831203446 68 321 5.0 12.0 0.00 0.00 0.00 73 1014.8
20260831202417 68 259 2.0 9.0 0.00 0.00 0.00 73 1015.1
20260831201428 67 189 2.0 9.0 0.00 0.00 0.00 73 1015.0
20260831200425 66 303 0.0 7.0 0.00 0.00 0.00 76 1015.0
20260831195417 65 215 2.0 7.0 0.00 0.00 0.00 77 1015.1
20260831194431 64 322 2.0 7.0 0.00 0.00 0.00 79 1015.3
20260831193445 63 315 3.0 6.0 0.00 0.00 0.00 81 1015.4
20260831192422 62 321 1.0 5.0 0.00 0.00 0.00 83 1015.4
20260831191435 61 310 2.0 7.0 0.00 0.00 0.00 84 1015.4
20260831190428 60 332 2.0 5.0 0.00 0.00 0.00 86 1015.5
20260831185420 59 255 1.0 5.0 0.00 0.00 0.00 90 1015.5
20260831184418 58 305 0.0 5.0 0.00 0.00 0.00 90 1015.5
20260831183432 58 313 0.0 3.0 0.00 0.00 0.00 92 1015.6
20260831182443 57 297 0.0 3.0 0.00 0.00 0.00 93 1015.6
20260831181419 57 329 1.0 3.0 0.00 0.00 0.00 93 1015.5
20260831180413 56 304 0.0 3.0 0.00 0.00 0.00 94 1015.5
20260831175425 56 299 0.0 3.0 0.00 0.00 0.00 94 1015.6
20260831174419 56 290 1.0 3.0 0.00 0.00 0.00 95 1015.3
20260831173415 55 288 0.0 4.0 0.00 0.00 0.00 95 1015.3
20260831114444 50 268 0.0 0.0 0.00 0.00 0.00 96 1013.4
20260831113418 50 268 0.0 0.0 0.00 0.00 0.00 96 1013.4
20260831112432 50 268 0.0 0.0 0.00 0.00 0.00 96 1013.3
20260831111425 50 268 0.0 0.0 0.00 0.00 0.00 96 1013.3
20260831110422 50 268 0.0 0.0 0.00 0.00 0.00 96 1013.3
20260831105414 50 268 0.0 0.0 0.00 0.00 0.00 96 1013.3
20260831104428 50 268 0.0 0.0 0.00 0.00 0.00 96 1013.3
20260831103426 50 268 0.0 0.0 0.00 0.00 0.00 96 1013.3
20260831102419 51 268 0.0 0.0 0.00 0.00 0.00 96 1013.2
20260831101453 50 268 0.0 0.0 0.00 0.00 0.00 96 1013.2
20260831100425 51 267 0.0 0.0 0.00 0.00 0.00 96 1013.0
20260831095421 51 268 0.0 0.0 0.00 0.00 0.00 96 1013.0
20260831094415 51 268 0.0 0.0 0.00 0.00 0.00 96 1013.0
20260831093449 51 267 0.0 0.0 0.00 0.00 0.00 96 1012.9
20260831092422 51 268 0.0 0.0 0.00 0.00 0.00 96 1012.9
20260831091418 50 268 0.0 0.0 0.00 0.00 0.00 95 1013.0
20260831090431 50 268 0.0 0.0 0.00 0.00 0.00 95 1013.0
20260831085444 51 268 0.0 0.0 0.00 0.00 0.00 95 1013.1
20260831084421 51 268 0.0 0.0 0.00 0.00 0.00 95 1013.2
20260831083415 51 268 0.0 0.0 0.00 0.00 0.00 95 1013.3
20260831082449 51 267 0.0 0.0 0.00 0.00 0.00 95 1013.3
20260831081441 51 268 0.0 0.0 0.00 0.00 0.00 95 1013.3
20260831080418 52 268 0.0 0.0 0.00 0.00 0.00 95 1013.3
20260831075449 51 268 0.0 0.0 0.00 0.00 0.00 95 1013.3
20260831074421 51 268 0.0 0.0 0.00 0.00 0.00 95 1013.3
20260831073416 52 268 0.0 0.0 0.00 0.00 0.00 95 1013.4
20260831072415 52 268 0.0 0.0 0.00 0.00 0.00 95 1013.4
20260831071429 52 268 0.0 0.0 0.00 0.00 0.00 95 1013.5
20260831070424 53 268 0.0 0.0 0.00 0.00 0.00 95 1013.4
20260831065416 52 268 0.0 0.0 0.00 0.00 0.00 95 1013.3
20260831064414 52 268 0.0 0.0 0.00 0.00 0.00 95 1013.3